MDT,Max TemperatureF,Mean TemperatureF,Min TemperatureF,Max Dew PointF,MeanDew PointF,Min DewpointF,Max Humidity, Mean Humidity, Min Humidity, Max Sea Level PressureIn, Mean Sea Level PressureIn, Min Sea Level PressureIn, Max VisibilityMiles, Mean VisibilityMiles, Min VisibilityMiles, Max Wind SpeedMPH, Mean Wind SpeedMPH, Max Gust SpeedMPH,PrecipitationIn, CloudCover, Events, WindDirDegrees
2013-10-1,75,56,37,34,30,27,70,41,19,30.22,30.16,30.11,10,10,10,15,6,22,0.00,0,,342
2013-10-2,71,52,33,30,24,19,70,38,14,30.22,30.15,30.08,10,10,10,15,4,22,0.00,0,,248
2013-10-3,69,51,33,30,23,19,60,35,15,30.11,30.02,29.91,10,10,5,21,6,28,0.00,0,,247
2013-10-4,57,46,35,25,12,0,49,26,11,30.21,30.06,29.92,10,10,9,22,13,30,0.00,1,,272
2013-10-5,55,38,21,16,14,10,63,37,18,30.36,30.29,30.20,10,10,10,16,10,24,0.00,1,,341
2013-10-6,66,44,23,18,13,9,64,35,11,30.43,30.38,30.32,10,10,10,12,5,,0.00,0,,356
2013-10-7,69,48,28,19,16,10,51,31,15,30.40,30.33,30.23,10,10,10,15,5,20,0.00,0,,326
2013-10-8,69,50,32,27,22,16,55,34,18,30.24,30.12,30.02,10,10,10,16,6,23,0.00,0,,275
2013-10-9,68,50,32,34,24,16,69,39,15,30.12,30.06,30.01,10,10,7,21,6,61,0.00,1,,228
2013-10-10,64,50,35,39,33,25,87,61,26,30.07,29.96,29.80,10,10,3,39,10,51,0.34,3,Thunderstorm,204
2013-10-11,51,40,30,34,29,25,86,67,46,30.19,30.08,30.02,10,10,10,18,8,24,0.00,1,,202
2013-10-12,59,42,26,32,27,25,93,62,27,30.27,30.22,30.18,10,10,10,15,5,21,0.00,0,,282
2013-10-13,66,48,30,45,34,27,87,60,32,30.30,30.20,30.10,10,10,10,26,6,32,0.01,2,Thunderstorm,199
2013-10-14,57,46,35,45,28,18,87,51,23,30.20,30.13,30.07,10,10,10,23,11,30,0.07,3,Thunderstorm,266
2013-10-15,57,40,24,34,24,19,87,57,26,30.21,30.15,30.07,10,10,2,22,7,28,0.12,2,,105
2013-10-16,48,39,30,34,28,21,93,72,37,30.20,30.16,30.12,10,8,1,16,7,22,0.21,5,,233
2013-10-17,53,38,24,27,23,18,86,59,28,30.21,30.13,30.03,10,10,10,14,5,17,0.00,0,,274
2013-10-18,51,38,24,25,19,10,80,53,20,30.24,30.12,30.04,10,10,10,16,5,22,0.00,0,,7
2013-10-19,55,37,19,21,18,14,93,51,21,30.27,30.20,30.12,10,10,10,10,4,,0.00,0,,278
2013-10-20,60,40,21,28,20,14,86,47,17,30.15,30.07,29.97,10,10,10,18,5,23,0.00,1,,317
2013-10-21,55,42,30,30,26,19,86,53,25,30.29,30.20,30.09,10,10,10,15,7,,0.00,2,,4
2013-10-22,60,42,24,25,20,16,80,50,19,30.37,30.31,30.27,10,10,7,12,4,,0.02,0,,343
2013-10-23,64,44,24,25,19,16,74,44,15,30.34,30.28,30.21,10,10,10,10,5,,0.00,0,,13
2013-10-24,64,45,26,27,22,19,74,42,18,30.36,30.30,30.23,10,10,5,14,7,16,0.00,1,,357
2013-10-25,55,48,39,41,37,27,87,68,40,30.37,30.32,30.23,10,10,9,23,7,30,0.36,6,Thunderstorm,217
2013-10-26,57,45,33,37,33,28,93,69,33,30.41,30.36,30.31,10,10,10,9,3,,0.01,2,,31
2013-10-27,57,44,30,36,32,27,87,66,36,30.37,30.19,30.05,10,10,9,14,4,17,0.00,0,,276
2013-10-28,59,44,30,36,30,25,87,65,27,30.08,30.04,29.99,10,10,10,20,6,25,0.00,0,,254
2013-10-29,59,52,44,34,23,19,66,32,23,30.07,29.98,29.94,10,10,10,25,16,36,0.00,2,,213
2013-10-30,48,40,32,36,30,21,93,72,37,30.05,29.98,29.91,10,8,2,18,6,25,0.08,6,,225
2013-10-31,44,35,26,28,25,21,86,70,46,30.12,30.05,29.94,10,10,10,18,9,23,0.13,2,,235